Volver al catálogo

HJS-8A

ActivoCienciaPO
NORAD 68687·PAYLOAD·🇨🇳 China

Lanzado Apr 11, 2026 desde South China Sea Launch Area

Loading…

Próximos Pases (próximas 24 horas)

TLE

ActualizadoSource: Space-Track

Época: Sep 14, 2026, 13:16 UTC

1 68687U 26078A   26257.55313501 -.00000063  00000-0 -18065-3 0  9997
2 68687  86.4954 252.2925 0002258  86.4009 273.7384 13.24404086 20800

Sigue HJS-8A en tiempo real con AllMySat

Download on the App Store